Regional Weather Roundup
Issued by NWS

Home | Current Version | Previous Version | Text Only | Print | Product List | Glossary Off
Versions: 1 2 3 4 5 6 7 8 9 10 11 12 13 14 15 16 17 18 19 20 21 22 23 24 25 26 27 28 29 30 31 32 33 34 35 36 37 38 39 40 41 42 43 44 45 46 47 48 49 50

000
ASUS45 KTFX 261710
RWRMT
MONTANA REGIONAL WEATHER ROUNDUP
NATIONAL WEATHER SERVICE GREAT FALLS MT
1100 AM MDT MON SEP 26 2016

NOTE: "FAIR" INDICATES FEW OR NO CLOUDS BELOW 12000 FEET WITH NO
SIGNIFICANT WEATHER AND/OR OBSTRUCTIONS TO VISIBILITY.

MTZ001>007-043-261800-
WEST OF THE DIVIDE

CITY           SKY/WX    TMP DP  RH WIND       PRES   REMARKS
KALISPELL      MOSUNNY   57  45  64 NE3       30.35F
MISSOULA       MOSUNNY   52  44  74 CALM      30.40F
BUTTE          SUNNY     53  40  61 CALM      30.45
MULLAN PASS    MOSUNNY   55  41  59 S8        30.41S
ANACONDA         N/A     61  43  51 SE12      30.40F
DEER LODGE       N/A     55  43  62 CALM      30.44F
EUREKA           N/A     54  45  71 W3        30.34F
HAMILTON         N/A     61  45  55 CALM      30.38F
LIBBY            N/A     52  45  76 CALM      30.33F
PLAINS           N/A     56  43  61 CALM      30.33F
RONAN            N/A     60  46  59 W2        30.37S
$$

MTZ008-052>055-261800-
SOUTHWEST MONTANA

CITY           SKY/WX    TMP DP  RH WIND       PRES   REMARKS
BOZEMAN        SUNNY     60  45  57 CALM      30.42F
DILLON         SUNNY     57  41  55 W5        30.44F
W YELLOWSTONE  SUNNY     46  34  61 CALM      30.54S
ENNIS          SUNNY     61  41  48 S7        30.49F
THREE FORKS      N/A     61  31  32 CALM      30.36F
TWIN BRIDGES     N/A     57  44  62 S6        30.37F
$$

MTZ009-010-012-014-046-048-049-054-261800-
EAST SLOPES AND CENTRAL MONTANA

CITY           SKY/WX    TMP DP  RH WIND       PRES   REMARKS
CUT BANK       MOSUNNY   65  43  44 SW6       30.25F
GREAT FALLS    SUNNY     65  44  46 SW15      30.27F
MALMSTROM AFB  SUNNY     66  44  45 SW15      30.27F
HELENA         SUNNY     61  44  53 VRB3      30.36F
AUGUSTA          N/A     62  44  51 S8        30.28F
BOWMANS CRNR     N/A     62  42  48 S22       30.28F
CHOTEAU          N/A     68  43  40 SW8       30.27F
CONRAD           N/A     66  51  58 S9        30.25S
FAIRFIELD        N/A     64  44  47 S14       30.26F
POWER            N/A     62  44  51 SW15      30.26F
RAYNESFORD       N/A     67  44  43 N5        30.28F
$$

MTZ011-013-016-021-045-047-050-051-261800-
NORTH CENTRAL MONTANA

CITY           SKY/WX    TMP DP  RH WIND       PRES   REMARKS
HAVRE          CLOUDY    61  46  57 SW15      30.25S
LEWISTOWN      CLOUDY    63  42  46 SW8       30.32S
N BAR RANCH      N/A     64  41  42 VRB6      30.34F
CHINOOK          N/A     59  46  63 CALM      30.24F
DENTON           N/A     63  47  56 S6        30.26S
GEYSER           N/A     62  44  51 S8        30.28F
GRASS RANGE      N/A     63  44  50 W13G20    30.28S
JUDITH GAP       N/A     61  44  53 S10G16    30.33F
ROY              N/A     64  46  51 MISG      30.28F
STANFORD         N/A     63  42  45 SE6       30.31S
WINIFRED         N/A     62  46  56 MISG      30.29F
$$

MTZ017>020-022>027-061-062-261800-
NORTHEAST MONTANA

CITY           SKY/WX    TMP DP  RH WIND       PRES   REMARKS
GLASGOW        SUNNY     55  40  56 W3        30.25S
JORDAN           N/A     64  44  48 SW6       30.27F
SIDNEY         SUNNY     58  48  69 S7        30.23S
WOLF POINT     SUNNY     58  43  57 SW8       30.25S
POPLAR           N/A     55  41  58 SW7       30.25S
SCOBEY           N/A     61  36  39 W3        30.19S
$$

MTZ028>42-056>058-261800-
SOUTHCENTRAL AND SOUTHEAST MONTANA

CITY           SKY/WX    TMP DP  RH WIND       PRES   REMARKS
BAKER          SUNNY     57  43  59 W13       30.27R
BILLINGS       MOSUNNY   60  44  55 SW10      30.34F
LIVINGSTON     SUNNY     65  39  38 SW17G26   30.37F
MILES CITY     SUNNY     64  39  39 NW7       30.28F
BIG TIMBER     SUNNY     66  43  42 W24       30.37S
EKALAKA          N/A     57  41  55 W14       30.24R
FORSYTH          N/A     63  45  51 W8        30.29F
HARLOWTON        N/A     64  45  49 W18       30.33F
LAUREL           N/A     62  43  49 S6        30.30F
ROUNDUP          N/A     63  45  51 S9        30.20F
$$

REGIONAL REPORTS...DAKOTAS

CITY           SKY/WX    TMP DP  RH WIND       PRES   REMARKS
WILLISTON      SUNNY     60  42  51 S6        30.21F
MINOT          SUNNY     62  35  36 W20       30.12F
DICKINSON      SUNNY     61  33  35 NW12G21   30.20F
CROSBY           N/A     59  32  36 NW15      30.21R
WATFORD CITY     N/A     59  37  44 NW10      30.21S
BISMARCK       SUNNY     63  34  33 NW18G28   30.16F
GRAND FORKS    MOSUNNY   59  39  47 NW24G33   29.93S
FARGO          SUNNY     62  35  36 NW25G32   29.97F
BUFFALO SD       N/A     64  41  42 NW23      30.19R
RAPID CITY     SUNNY     69  41  36 N15       30.27F
$$

REGIONAL REPORTS...WYOMING/IDAHO/WASHINGTON

CITY           SKY/WX    TMP DP  RH WIND       PRES   REMARKS
GILLETTE       SUNNY     63  42  46 NW18G24   30.35S
SHERIDAN       SUNNY     67  45  45 VRB7      30.36S
BUFFALO WY     SUNNY     64  39  39 W3        30.40S
CODY           SUNNY     61  43  51 CALM      30.41F
YELLOWSTONE LA   N/A     48  41  76 E5        30.58R
IDAHO FALLS    SUNNY     55  42  61 CALM      30.47F
SALMON           N/A    N/A N/A N/A MISG        N/A
BOISE          SUNNY     69  39  33 S9        30.34S
SPOKANE        PTSUNNY   59  44  57 NE8       30.26F
$$

REGIONAL REPORTS...ALBERTA

CITY           SKY/WX    TMP DP  RH WIND       PRES   REMARKS
EDMONTON       MOSUNNY   61  41  48 S6        30.03F
CALGARY        PTSUNNY   63  39  42 SE3       30.13F
LETHBRIDGE     PTSUNNY   70  41  35 SW20      30.16F
MEDICINE HAT   PTSUNNY   61  46  59 S7        30.17F
MILK RIVER       N/A     66  45  45 SW10        N/A
ONEFOUR          N/A     59  41  51 SE3         N/A
$$

REGIONAL REPORTS...SASKATCHEWAN

CITY           SKY/WX    TMP DP  RH WIND       PRES   REMARKS
SWIFT CURRENT  SUNNY     59  37  44 W8        30.20S
REGINA         MOSUNNY   57  37  47 NW8       30.18F
SASKATOON      MOSUNNY   55  39  54 W6        30.18F
CYPRESS HILLS    N/A     63  37  39 S6          N/A
VAL MARIE        N/A     61  39  44 NW6         N/A
ROCKGLEN         N/A     61  36  39 NW8         N/A
ASSINIBOIA       N/A     64  41  42 S12G17      N/A
$$



USA.gov is the U.S. government's official web portal to all federal, state and local government web resources and services.